Location: ????????
(54.9045°N, 39.1041°E)
Time: 03:00:37
(UTC+00:00)

Cosmos 1420 Rocket - Pass Details

Date: 14 April 2024
Orbit: 752 x 779 km, 74.0° (Epoch: 25 May)

Event Time Altitude Azimuth Distance (km) Brightness Sun altitude
Rises 00:28:18 0° 332° (NNW) 3,236 7.4 -14.9°
Reaches altitude 10° 00:30:40 10° 333° (NNW) 2,310 6.7 -14.7°
Maximum altitude 00:35:56 83° 62° (ENE) 781 4.1 -14.1°
Drops below altitude 10° 00:41:12 10° 151° (SSE) 2,313 6.4 -13.5°
Sets 00:43:35 0° 152° (SSE) 3,240 7.1 -13.3°
